| time (UTC) | temp F | wind direction | speed MPH | gust MPH | rain 1hr in | rain 24hr in | rain mn in | humidity % | barometer mb |
| 20260507202517 | 63 | 214 | 1.0 | 2.0 | 0.00 | 0.01 | 0.01 | 79 | 1003.9 |
| 20260507201517 | 64 | 213 | 0.0 | 3.0 | 0.00 | 0.01 | 0.01 | 80 | 1003.7 |
| 20260507201017 | 64 | 213 | 1.0 | 3.0 | 0.00 | 0.01 | 0.01 | 80 | 1003.8 |
| 20260507200518 | 64 | 213 | 2.0 | 4.0 | 0.00 | 0.01 | 0.01 | 80 | 1003.7 |
| 20260507200017 | 65 | 202 | 2.0 | 4.0 | 0.00 | 0.01 | 0.01 | 81 | 1003.7 |
| 20260507195517 | 65 | 202 | 2.0 | 6.0 | 0.00 | 0.01 | 0.01 | 81 | 1003.6 |
| 20260507195018 | 65 | 197 | 2.0 | 6.0 | 0.00 | 0.01 | 0.01 | 82 | 1003.5 |
| 20260507194517 | 65 | 163 | 2.0 | 5.0 | 0.00 | 0.01 | 0.01 | 82 | 1003.4 |
| 20260507194010 | 66 | 148 | 2.0 | 7.0 | 0.00 | 0.01 | 0.01 | 83 | 1003.3 |
| 20260507193509 | 66 | 148 | 3.0 | 7.0 | 0.00 | 0.01 | 0.01 | 85 | 1003.2 |
| 20260507193009 | 66 | 106 | 3.0 | 7.0 | 0.00 | 0.01 | 0.01 | 85 | 1003.3 |
| 20260507192734 | 66 | 118 | 2.0 | 7.0 | 0.00 | 0.01 | 0.01 | 85 | 1003.3 |
| 20260507192009 | 67 | 79 | 0.0 | 3.0 | 0.00 | 0.01 | 0.01 | 85 | 1003.3 |
| 20260507191510 | 67 | 78 | 0.0 | 0.0 | 0.00 | 0.01 | 0.01 | 85 | 1003.4 |
| 20260507191008 | 67 | 78 | 0.0 | 0.0 | 0.00 | 0.01 | 0.01 | 86 | 1003.3 |
| 20260507190503 | 68 | 78 | 0.0 | 0.0 | 0.00 | 0.01 | 0.01 | 86 | 1003.3 |
| 20260507190000 | 68 | 78 | 0.0 | 0.0 | 0.00 | 0.01 | 0.01 | 87 | 1003.3 |
| 20260507185500 | 68 | 78 | 0.0 | 0.0 | 0.00 | 0.01 | 0.01 | 87 | 1003.3 |
| 20260507185000 | 68 | 78 | 0.0 | 0.0 | 0.00 | 0.01 | 0.01 | 87 | 1003.3 |
| 20260507184500 | 69 | 78 | 0.0 | 0.0 | 0.00 | 0.01 | 0.01 | 88 | 1003.4 |
| 20260507184227 | 69 | 78 | 0.0 | 0.0 | 0.00 | 0.01 | 0.01 | 90 | 1003.3 |
| 20260507183500 | 69 | 78 | 0.0 | 2.0 | 0.00 | 0.01 | 0.01 | 90 | 1003.3 |
| 20260507183001 | 69 | 78 | 0.0 | 2.0 | 0.00 | 0.01 | 0.01 | 90 | 1003.3 |
| 20260507182513 | 69 | 78 | 1.0 | 2.0 | 0.00 | 0.01 | 0.01 | 90 | 1003.2 |
| 20260507182001 | 69 | 78 | 0.0 | 2.0 | 0.00 | 0.01 | 0.01 | 90 | 1003.2 |
| 20260507181500 | 69 | 78 | 0.0 | 4.0 | 0.00 | 0.01 | 0.01 | 90 | 1003.2 |
| 20260507181000 | 69 | 78 | 1.0 | 4.0 | 0.00 | 0.01 | 0.01 | 90 | 1003.2 |
| 20260507180501 | 69 | 78 | 2.0 | 4.0 | 0.00 | 0.01 | 0.01 | 90 | 1003.1 |
| 20260507180001 | 70 | 78 | 2.0 | 4.0 | 0.00 | 0.01 | 0.01 | 90 | 1003.1 |
| 20260507175500 | 70 | 55 | 1.0 | 6.0 | 0.00 | 0.01 | 0.01 | 90 | 1003.0 |
| 20260507175000 | 70 | 39 | 1.0 | 6.0 | 0.00 | 0.01 | 0.01 | 90 | 1003.0 |
| 20260507174720 | 70 | 86 | 1.0 | 8.0 | 0.00 | 0.01 | 0.01 | 90 | 1003.1 |
| 20260507173956 | 70 | 50 | 2.0 | 8.0 | 0.00 | 0.01 | 0.01 | 90 | 1003.1 |
| 20260507173456 | 70 | 88 | 3.0 | 9.0 | 0.00 | 0.01 | 0.01 | 90 | 1003.1 |
| 20260507172957 | 71 | 99 | 3.0 | 9.0 | 0.00 | 0.01 | 0.01 | 90 | 1003.1 |
| 20260507172456 | 71 | 102 | 2.0 | 6.0 | 0.00 | 0.01 | 0.01 | 89 | 1003.1 |
| 20260507171957 | 71 | 34 | 2.0 | 6.0 | 0.00 | 0.01 | 0.01 | 89 | 1003.1 |
| 20260507171457 | 71 | 31 | 2.0 | 6.0 | 0.00 | 0.01 | 0.01 | 89 | 1003.1 |
| 20260507170956 | 71 | 82 | 2.0 | 6.0 | 0.00 | 0.01 | 0.01 | 88 | 1003.1 |
| 20260507170509 | 71 | 26 | 2.0 | 9.0 | 0.00 | 0.01 | 0.01 | 88 | 1003.1 |
| 20260507170219 | 71 | 25 | 2.0 | 9.0 | 0.00 | 0.01 | 0.01 | 88 | 1003.2 |
| 20260507165457 | 72 | 56 | 2.0 | 4.0 | 0.00 | 0.01 | 0.01 | 87 | 1003.3 |
| 20260507164956 | 72 | 36 | 2.0 | 6.0 | 0.00 | 0.01 | 0.01 | 87 | 1003.3 |
| 20260507164457 | 72 | 91 | 2.0 | 5.0 | 0.00 | 0.01 | 0.01 | 86 | 1003.3 |
| 20260507164218 | 71 | 83 | 2.0 | 5.0 | 0.00 | 0.01 | 0.01 | 86 | 1003.3 |
| 20260507163457 | 71 | 102 | 2.0 | 8.0 | 0.00 | 0.01 | 0.01 | 86 | 1003.1 |
| 20260507162956 | 71 | 55 | 3.0 | 8.0 | 0.00 | 0.01 | 0.01 | 86 | 1003.2 |
| 20260507162457 | 71 | 96 | 3.0 | 8.0 | 0.00 | 0.01 | 0.01 | 86 | 1003.2 |
| 20260507161957 | 71 | 90 | 2.0 | 8.0 | 0.00 | 0.01 | 0.01 | 86 | 1003.0 |
| 20260507161457 | 71 | 54 | 3.0 | 9.0 | 0.00 | 0.01 | 0.01 | 86 | 1003.0 |
| 20260507160957 | 71 | 55 | 3.0 | 9.0 | 0.00 | 0.01 | 0.01 | 86 | 1003.1 |
| 20260507160458 | 71 | 26 | 3.0 | 8.0 | 0.00 | 0.01 | 0.01 | 86 | 1003.0 |
| 20260507155957 | 71 | 103 | 3.0 | 10.0 | 0.00 | 0.01 | 0.01 | 86 | 1003.0 |
| 20260507155456 | 71 | 11 | 3.0 | 10.0 | 0.00 | 0.01 | 0.01 | 85 | 1003.2 |
| 20260507155224 | 71 | 44 | 4.0 | 11.0 | 0.00 | 0.01 | 0.01 | 85 | 1003.2 |
| 20260507154456 | 71 | 14 | 4.0 | 11.0 | 0.00 | 0.01 | 0.01 | 84 | 1003.2 |
| 20260507153957 | 71 | 31 | 4.0 | 11.0 | 0.00 | 0.01 | 0.01 | 80 | 1003.2 |
| 20260507153719 | 71 | 323 | 4.0 | 11.0 | 0.00 | 0.01 | 0.01 | 80 | 1003.7 |
| 20260507153214 | 70 | 18 | 4.0 | 10.0 | 0.00 | 0.01 | 0.01 | 80 | 1003.2 |
| 20260507152456 | 69 | 17 | 4.0 | 12.0 | 0.00 | 0.01 | 0.01 | 80 | 1003.3 |
| 20260507151957 | 69 | 24 | 4.0 | 12.0 | 0.00 | 0.01 | 0.01 | 80 | 1003.3 |
| 20260507151457 | 69 | 344 | 4.0 | 10.0 | 0.00 | 0.01 | 0.01 | 80 | 1003.3 |
| 20260507150958 | 70 | 38 | 5.0 | 10.0 | 0.00 | 0.01 | 0.01 | 81 | 1003.2 |
| 20260507150457 | 70 | 355 | 5.0 | 13.0 | 0.00 | 0.01 | 0.01 | 81 | 1003.2 |
| 20260507145957 | 71 | 11 | 4.0 | 13.0 | 0.00 | 0.01 | 0.01 | 80 | 1003.2 |
| 20260507145457 | 70 | 355 | 4.0 | 9.0 | 0.00 | 0.01 | 0.01 | 80 | 1003.2 |
| 20260507144957 | 70 | 25 | 4.0 | 11.0 | 0.00 | 0.01 | 0.01 | 80 | 1003.4 |
| 20260507144457 | 70 | 342 | 4.0 | 11.0 | 0.00 | 0.01 | 0.01 | 80 | 1003.4 |
| 20260507143956 | 70 | 11 | 5.0 | 9.0 | 0.00 | 0.01 | 0.01 | 80 | 1003.5 |
| 20260507143457 | 70 | 11 | 5.0 | 12.0 | 0.00 | 0.01 | 0.01 | 80 | 1003.6 |
| 20260507142958 | 70 | 37 | 5.0 | 12.0 | 0.00 | 0.01 | 0.01 | 80 | 1003.6 |
| 20260507142459 | 70 | 317 | 5.0 | 12.0 | 0.00 | 0.01 | 0.01 | 80 | 1003.6 |
| 20260507141958 | 70 | 39 | 5.0 | 12.0 | 0.00 | 0.01 | 0.01 | 80 | 1003.7 |
| 20260507140957 | 70 | 5 | 6.0 | 11.0 | 0.00 | 0.01 | 0.01 | 79 | 1003.7 |
| 20260507140457 | 70 | 14 | 5.0 | 11.0 | 0.00 | 0.01 | 0.01 | 80 | 1003.8 |
| 20260507135958 | 70 | 5 | 5.0 | 13.0 | 0.00 | 0.01 | 0.01 | 79 | 1003.9 |
| 20260507135457 | 69 | 0 | 5.0 | 13.0 | 0.00 | 0.01 | 0.01 | 79 | 1004.0 |
| 20260507134957 | 70 | 327 | 5.0 | 10.0 | 0.00 | 0.01 | 0.01 | 79 | 1004.0 |
| 20260507134456 | 69 | 339 | 4.0 | 10.0 | 0.00 | 0.01 | 0.01 | 79 | 1004.0 |
| 20260507133957 | 69 | 5 | 4.0 | 10.0 | 0.00 | 0.01 | 0.01 | 79 | 1004.1 |
| 20260507133723 | 69 | 31 | 4.0 | 11.0 | 0.00 | 0.01 | 0.01 | 79 | 1004.0 |
| 20260507133212 | 69 | 20 | 4.0 | 12.0 | 0.00 | 0.01 | 0.01 | 78 | 1004.0 |
| 20260507132444 | 69 | 5 | 5.0 | 12.0 | 0.00 | 0.01 | 0.01 | 79 | 1004.1 |
| 20260507131944 | 68 | 17 | 5.0 | 12.0 | 0.00 | 0.01 | 0.01 | 79 | 1004.1 |
| 20260507131444 | 68 | 42 | 5.0 | 12.0 | 0.00 | 0.01 | 0.01 | 79 | 1004.2 |
| 20260507130944 | 68 | 348 | 6.0 | 12.0 | 0.00 | 0.02 | 0.01 | 79 | 1004.3 |
| 20260507130443 | 68 | 327 | 6.0 | 12.0 | 0.00 | 0.02 | 0.01 | 79 | 1004.4 |
| 20260507125943 | 69 | 14 | 6.0 | 11.0 | 0.00 | 0.02 | 0.01 | 79 | 1004.5 |
| 20260507125443 | 69 | 13 | 6.0 | 11.0 | 0.00 | 0.02 | 0.01 | 79 | 1004.4 |
| 20260507125158 | 69 | 9 | 5.0 | 12.0 | 0.00 | 0.02 | 0.01 | 80 | 1004.5 |
| 20260507124444 | 69 | 348 | 4.0 | 12.0 | 0.00 | 0.02 | 0.01 | 80 | 1004.6 |
| 20260507123944 | 69 | 5 | 4.0 | 13.0 | 0.00 | 0.02 | 0.01 | 79 | 1004.6 |
| 20260507123443 | 69 | 350 | 4.0 | 13.0 | 0.00 | 0.02 | 0.01 | 79 | 1004.6 |
| 20260507122943 | 69 | 21 | 5.0 | 13.0 | 0.00 | 0.03 | 0.01 | 78 | 1004.7 |
| 20260507122443 | 69 | 33 | 5.0 | 13.0 | 0.00 | 0.03 | 0.01 | 78 | 1004.6 |
| 20260507121943 | 69 | 355 | 4.0 | 12.0 | 0.00 | 0.04 | 0.01 | 77 | 1004.6 |
| 20260507121444 | 69 | 355 | 5.0 | 12.0 | 0.00 | 0.04 | 0.01 | 76 | 1004.7 |
| 20260507120943 | 68 | 11 | 5.0 | 11.0 | 0.00 | 0.05 | 0.01 | 76 | 1004.7 |
| 20260507120443 | 68 | 5 | 5.0 | 11.0 | 0.00 | 0.06 | 0.01 | 76 | 1004.7 |
| 20260507115944 | 68 | 17 | 4.0 | 10.0 | 0.00 | 0.06 | 0.01 | 75 | 1004.8 |
| 20260507115444 | 69 | 16 | 4.0 | 11.0 | 0.00 | 0.06 | 0.01 | 74 | 1004.9 |
| 20260507114944 | 69 | 5 | 4.0 | 11.0 | 0.00 | 0.06 | 0.01 | 73 | 1004.9 |
| 20260507114456 | 69 | 17 | 4.0 | 10.0 | 0.00 | 0.06 | 0.01 | 78 | 1004.9 |
| 20260507114204 | 69 | 338 | 3.0 | 10.0 | 0.00 | 0.06 | 0.01 | 77 | 1004.9 |
| 20260507113444 | 68 | 28 | 3.0 | 9.0 | 0.00 | 0.06 | 0.01 | 76 | 1004.9 |
| 20260507112443 | 67 | 314 | 4.0 | 9.0 | 0.00 | 0.06 | 0.01 | 74 | 1005.0 |
| 20260507111944 | 67 | 355 | 4.0 | 10.0 | 0.00 | 0.06 | 0.01 | 73 | 1005.1 |
| 20260507111444 | 67 | 17 | 4.0 | 10.0 | 0.00 | 0.06 | 0.01 | 73 | 1005.2 |
| 20260507110944 | 67 | 18 | 4.0 | 9.0 | 0.00 | 0.06 | 0.01 | 72 | 1005.2 |
| 20260507110444 | 66 | 0 | 3.0 | 7.0 | 0.00 | 0.06 | 0.01 | 72 | 1005.3 |
| 20260507105944 | 66 | 350 | 3.0 | 5.0 | 0.00 | 0.06 | 0.01 | 71 | 1005.5 |
| 20260507105707 | 66 | 5 | 3.0 | 6.0 | 0.00 | 0.06 | 0.01 | 71 | 1005.8 |
| 20260507104944 | 66 | 348 | 3.0 | 6.0 | 0.00 | 0.06 | 0.01 | 70 | 1005.8 |
| 20260507104443 | 66 | 350 | 3.0 | 8.0 | 0.00 | 0.06 | 0.01 | 71 | 1005.8 |
| 20260507103943 | 65 | 36 | 3.0 | 8.0 | 0.00 | 0.06 | 0.01 | 71 | 1005.9 |
| 20260507103444 | 65 | 21 | 2.0 | 6.0 | 0.00 | 0.06 | 0.01 | 70 | 1006.0 |
| 20260507102944 | 65 | 355 | 2.0 | 3.0 | 0.00 | 0.06 | 0.01 | 70 | 1006.0 |
| 20260507102443 | 65 | 0 | 2.0 | 6.0 | 0.00 | 0.06 | 0.01 | 71 | 1006.1 |
| 20260507101944 | 65 | 11 | 2.0 | 6.0 | 0.00 | 0.06 | 0.01 | 70 | 1006.2 |
| 20260507101457 | 65 | 351 | 3.0 | 5.0 | 0.00 | 0.06 | 0.01 | 71 | 1006.3 |
| 20260507101220 | 65 | 27 | 3.0 | 5.0 | 0.00 | 0.06 | 0.01 | 70 | 1006.3 |
| 20260507100723 | 65 | 355 | 2.0 | 5.0 | 0.00 | 0.06 | 0.01 | 69 | 1006.3 |
| 20260507095943 | 65 | 5 | 2.0 | 5.0 | 0.00 | 0.06 | 0.01 | 69 | 1006.3 |
| 20260507095444 | 65 | 325 | 2.0 | 5.0 | 0.00 | 0.06 | 0.01 | 68 | 1006.4 |
| 20260507094943 | 65 | 348 | 2.0 | 5.0 | 0.00 | 0.06 | 0.01 | 67 | 1006.5 |
| 20260507094703 | 64 | 28 | 2.0 | 5.0 | 0.00 | 0.06 | 0.01 | 66 | 1006.5 |
| 20260507093939 | 64 | 54 | 1.0 | 5.0 | 0.00 | 0.06 | 0.01 | 66 | 1006.6 |
| 20260507093437 | 64 | 19 | 2.0 | 4.0 | 0.00 | 0.06 | 0.01 | 65 | 1006.6 |
| 20260507092938 | 63 | 16 | 1.0 | 4.0 | 0.00 | 0.06 | 0.01 | 64 | 1006.7 |
| 20260507092438 | 63 | 72 | 1.0 | 4.0 | 0.00 | 0.06 | 0.01 | 63 | 1006.7 |
| 20260507091938 | 62 | 342 | 3.0 | 7.0 | 0.00 | 0.06 | 0.01 | 62 | 1006.8 |
| 20260507091437 | 62 | 92 | 2.0 | 7.0 | 0.00 | 0.06 | 0.01 | 61 | 1006.8 |
| 20260507090937 | 62 | 98 | 2.0 | 6.0 | 0.00 | 0.06 | 0.01 | 62 | 1006.7 |
| 20260507090451 | 61 | 99 | 3.0 | 6.0 | 0.00 | 0.06 | 0.01 | 62 | 1006.8 |
| 20260507085938 | 60 | 102 | 2.0 | 6.0 | 0.00 | 0.07 | 0.01 | 62 | 1006.8 |
| 20260507085438 | 60 | 188 | 2.0 | 6.0 | 0.00 | 0.07 | 0.01 | 64 | 1006.8 |
| 20260507084938 | 59 | 125 | 2.0 | 8.0 | 0.00 | 0.07 | 0.01 | 64 | 1006.8 |
| 20260507083938 | 58 | 117 | 0.0 | 4.0 | 0.00 | 0.07 | 0.01 | 66 | 1006.8 |
| 20260507083703 | 57 | 204 | 1.0 | 4.0 | 0.00 | 0.08 | 0.01 | 66 | 1006.8 |
| 20260507082937 | 57 | 204 | 2.0 | 4.0 | 0.00 | 0.08 | 0.01 | 67 | 1006.8 |
| 20260507082438 | 56 | 40 | 1.0 | 3.0 | 0.00 | 0.08 | 0.01 | 67 | 1006.9 |
| 20260507082213 | 56 | 138 | 2.0 | 4.0 | 0.00 | 0.08 | 0.01 | 68 | 1006.9 |
| 20260507081437 | 55 | 137 | 2.0 | 4.0 | 0.00 | 0.08 | 0.01 | 68 | 1007.0 |
| 20260507080937 | 55 | 134 | 2.0 | 4.0 | 0.00 | 0.08 | 0.01 | 68 | 1007.0 |
| 20260507080421 | 54 | 158 | 2.0 | 4.0 | 0.00 | 0.08 | 0.01 | 68 | 1007.0 |
| 20260507075921 | 54 | 207 | 1.0 | 3.0 | 0.00 | 0.09 | 0.01 | 68 | 1007.0 |
| 20260507075417 | 53 | 232 | 1.0 | 2.0 | 0.00 | 0.11 | 0.01 | 68 | 1007.0 |
| 20260507074916 | 53 | 233 | 1.0 | 2.0 | 0.00 | 0.11 | 0.01 | 69 | 1007.1 |
| 20260507074417 | 52 | 233 | 1.0 | 2.0 | 0.00 | 0.11 | 0.01 | 68 | 1007.2 |
| 20260507073915 | 52 | 240 | 1.0 | 5.0 | 0.00 | 0.11 | 0.01 | 69 | 1007.2 |
| 20260507073413 | 52 | 240 | 2.0 | 5.0 | 0.00 | 0.11 | 0.01 | 68 | 1007.2 |
| 20260507072913 | 51 | 194 | 2.0 | 6.0 | 0.00 | 0.11 | 0.01 | 69 | 1007.3 |
| 20260507072412 | 51 | 157 | 2.0 | 6.0 | 0.00 | 0.11 | 0.01 | 69 | 1007.3 |
| 20260507071912 | 51 | 173 | 1.0 | 5.0 | 0.00 | 0.11 | 0.01 | 69 | 1007.2 |
| 20260507071413 | 50 | 222 | 2.0 | 5.0 | 0.00 | 0.11 | 0.01 | 69 | 1007.3 |
| 20260507070913 | 50 | 220 | 2.0 | 5.0 | 0.00 | 0.11 | 0.01 | 69 | 1007.4 |
| 20260507070412 | 50 | 215 | 3.0 | 5.0 | 0.00 | 0.11 | 0.01 | 69 | 1007.3 |
| 20260507065912 | 49 | 208 | 3.0 | 5.0 | 0.00 | 0.11 | 0.01 | 69 | 1007.4 |
| 20260507065412 | 49 | 213 | 2.0 | 4.0 | 0.00 | 0.11 | 0.01 | 69 | 1007.4 |
| 20260507064913 | 49 | 238 | 2.0 | 4.0 | 0.00 | 0.11 | 0.01 | 69 | 1007.4 |
| 20260507064413 | 49 | 240 | 1.0 | 4.0 | 0.00 | 0.11 | 0.01 | 69 | 1007.4 |
| 20260507063913 | 48 | 212 | 0.0 | 0.0 | 0.00 | 0.11 | 0.01 | 69 | 1007.4 |
| 20260507063412 | 48 | 213 | 0.0 | 3.0 | 0.01 | 0.11 | 0.01 | 69 | 1007.5 |
| 20260507062912 | 47 | 223 | 1.0 | 3.0 | 0.01 | 0.11 | 0.01 | 69 | 1007.5 |
| 20260507062412 | 47 | 223 | 2.0 | 3.0 | 0.01 | 0.11 | 0.01 | 69 | 1007.4 |
| 20260507062131 | 47 | 224 | 2.0 | 3.0 | 0.01 | 0.11 | 0.01 | 69 | 1007.4 |
| 20260507061413 | 47 | 229 | 2.0 | 3.0 | 0.01 | 0.11 | 0.01 | 69 | 1007.4 |
| 20260507060912 | 46 | 240 | 2.0 | 4.0 | 0.01 | 0.11 | 0.01 | 69 | 1007.6 |
| 20260507060413 | 46 | 229 | 2.0 | 4.0 | 0.01 | 0.11 | 0.01 | 69 | 1007.6 |
| 20260507055912 | 46 | 228 | 1.0 | 3.0 | 0.01 | 0.11 | 0.01 | 69 | 1007.6 |
| 20260507055413 | 45 | 226 | 0.0 | 3.0 | 0.01 | 0.11 | 0.01 | 69 | 1007.6 |
| 20260507054912 | 45 | 217 | 0.0 | 3.0 | 0.01 | 0.11 | 0.01 | 69 | 1007.6 |
| 20260507054413 | 45 | 219 | 0.0 | 2.0 | 0.01 | 0.11 | 0.01 | 69 | 1007.6 |
| 20260507054133 | 45 | 217 | 0.0 | 0.0 | 0.01 | 0.11 | 0.01 | 69 | 1007.6 |
| 20260507053412 | 45 | 217 | 0.0 | 0.0 | 0.00 | 0.10 | 0.00 | 69 | 1007.6 |
| 20260507052912 | 45 | 217 | 0.0 | 0.0 | 0.00 | 0.10 | 0.00 | 69 | 1007.4 |
| 20260507052413 | 45 | 217 | 0.0 | 0.0 | 0.00 | 0.10 | 0.00 | 69 | 1007.5 |
| 20260507051913 | 45 | 217 | 0.0 | 2.0 | 0.00 | 0.10 | 0.00 | 69 | 1007.5 |
| 20260507051413 | 45 | 217 | 0.0 | 2.0 | 0.00 | 0.11 | 0.00 | 69 | 1007.5 |
| 20260507050914 | 45 | 217 | 1.0 | 4.0 | 0.00 | 0.12 | 0.00 | 69 | 1007.5 |
| 20260507050638 | 45 | 217 | 2.0 | 4.0 | 0.00 | 0.12 | 0.00 | 69 | 1007.5 |
| 20260507045912 | 45 | 250 | 1.0 | 3.0 | 0.00 | 0.13 | 0.00 | 69 | 1007.5 |
| 20260507045633 | 45 | 254 | 1.0 | 3.0 | 0.00 | 0.14 | 0.00 | 69 | 1007.5 |
| 20260507044413 | 45 | 228 | 0.0 | 0.0 | 0.00 | 0.16 | 0.00 | 68 | 1007.3 |
| 20260507043912 | 45 | 228 | 0.0 | 0.0 | 0.00 | 0.17 | 0.00 | 68 | 1007.4 |
| 20260507043412 | 46 | 228 | 0.0 | 0.0 | 0.00 | 0.20 | 0.00 | 69 | 1007.4 |
| 20260507043130 | 46 | 228 | 0.0 | 0.0 | 0.00 | 0.21 | 0.00 | 69 | 1007.4 |
| 20260507042413 | 46 | 228 | 0.0 | 0.0 | 0.00 | 0.23 | 0.00 | 69 | 1007.4 |
| 20260507041912 | 46 | 228 | 0.0 | 3.0 | 0.00 | 0.23 | 0.00 | 69 | 1007.5 |
| 20260507041411 | 46 | 228 | 0.0 | 3.0 | 0.00 | 0.24 | 0.00 | 69 | 1007.4 |
| 20260507040910 | 46 | 228 | 1.0 | 2.0 | 0.00 | 0.24 | 0.00 | 69 | 1007.5 |
| 20260507040404 | 46 | 228 | 1.0 | 3.0 | 0.00 | 0.24 | 0.00 | 69 | 1007.5 |
| 20260507035404 | 46 | 227 | 1.0 | 2.0 | 0.00 | 0.24 | 0.00 | 69 | 1007.6 |
| 20260507034904 | 46 | 227 | 0.0 | 2.0 | 0.00 | 0.24 | 0.00 | 69 | 1007.7 |
| 20260507033903 | 46 | 227 | 1.0 | 3.0 | 0.00 | 0.24 | 0.00 | 69 | 1007.7 |
| 20260507033404 | 46 | 227 | 1.0 | 3.0 | 0.00 | 0.24 | 0.00 | 69 | 1007.5 |
| 20260507032903 | 46 | 228 | 0.0 | 1.0 | 0.00 | 0.24 | 0.00 | 69 | 1007.6 |
| 20260507032404 | 46 | 228 | 1.0 | 3.0 | 0.00 | 0.24 | 0.00 | 69 | 1007.7 |
| 20260507031903 | 46 | 228 | 1.0 | 3.0 | 0.00 | 0.24 | 0.00 | 69 | 1007.6 |
| 20260507031625 | 46 | 228 | 2.0 | 3.0 | 0.00 | 0.24 | 0.00 | 69 | 1007.6 |
| 20260507030917 | 46 | 229 | 1.0 | 4.0 | 0.00 | 0.24 | 0.00 | 69 | 1007.7 |
| 20260507030404 | 46 | 232 | 1.0 | 4.0 | 0.00 | 0.24 | 0.00 | 69 | 1007.7 |
| 20260507025904 | 46 | 231 | 1.0 | 3.0 | 0.00 | 0.24 | 0.00 | 68 | 1007.7 |
| 20260507025403 | 46 | 232 | 1.0 | 3.0 | 0.00 | 0.24 | 0.00 | 68 | 1007.7 |
| 20260507024903 | 46 | 241 | 0.0 | 3.0 | 0.00 | 0.24 | 0.00 | 69 | 1007.6 |
| 20260507024619 | 47 | 243 | 0.0 | 0.0 | 0.00 | 0.24 | 0.00 | 69 | 1007.5 |
| 20260507024127 | 47 | 243 | 0.0 | 0.0 | 0.00 | 0.24 | 0.00 | 69 | 1007.6 |
| 20260507023358 | 47 | 242 | 0.0 | 0.0 | 0.00 | 0.24 | 0.00 | 69 | 1007.7 |
| 20260507023118 | 47 | 242 | 0.0 | 0.0 | 0.00 | 0.24 | 0.00 | 69 | 1007.8 |
| 20260507022347 | 47 | 242 | 0.0 | 0.0 | 0.00 | 0.24 | 0.00 | 69 | 1007.7 |
| 20260507022108 | 47 | 242 | 0.0 | 0.0 | 0.00 | 0.24 | 0.00 | 68 | 1007.8 |
| 20260507021606 | 47 | 242 | 0.0 | 1.0 | 0.00 | 0.24 | 0.00 | 69 | 1007.8 |
| 20260507020844 | 47 | 242 | 0.0 | 1.0 | 0.00 | 0.24 | 0.00 | 69 | 1007.8 |
| 20260507020343 | 47 | 242 | 0.0 | 2.0 | 0.00 | 0.24 | 0.00 | 69 | 1007.7 |
| 20260507015843 | 47 | 243 | 0.0 | 2.0 | 0.00 | 0.24 | 0.00 | 69 | 1007.8 |
| 20260507015343 | 47 | 243 | 0.0 | 1.0 | 0.00 | 0.24 | 0.00 | 69 | 1007.8 |
| 20260507014844 | 47 | 243 | 1.0 | 2.0 | 0.00 | 0.24 | 0.00 | 69 | 1007.8 |
| 20260507014344 | 47 | 243 | 1.0 | 3.0 | 0.00 | 0.24 | 0.00 | 69 | 1007.9 |
| 20260507013843 | 47 | 244 | 1.0 | 3.0 | 0.00 | 0.24 | 0.00 | 69 | 1008.0 |
| 20260507013343 | 48 | 244 | 1.0 | 2.0 | 0.00 | 0.24 | 0.00 | 69 | 1008.0 |
| 20260507013107 | 48 | 247 | 2.0 | 4.0 | 0.00 | 0.24 | 0.00 | 69 | 1007.9 |
| 20260507012343 | 47 | 249 | 1.0 | 4.0 | 0.00 | 0.24 | 0.00 | 69 | 1008.0 |
| 20260507011844 | 47 | 191 | 0.0 | 2.0 | 0.00 | 0.24 | 0.00 | 69 | 1008.1 |
| 20260507011342 | 47 | 190 | 1.0 | 3.0 | 0.00 | 0.24 | 0.00 | 69 | 1008.0 |
| 20260507011107 | 48 | 190 | 1.0 | 4.0 | 0.00 | 0.24 | 0.00 | 69 | 1008.0 |
| 20260507010352 | 48 | 190 | 1.0 | 4.0 | 0.00 | 0.24 | 0.00 | 69 | 1008.0 |
| 20260507005839 | 48 | 211 | 1.0 | 3.0 | 0.00 | 0.24 | 0.00 | 69 | 1008.0 |
| 20260507005340 | 48 | 211 | 0.0 | 3.0 | 0.00 | 0.24 | 0.00 | 69 | 1008.0 |
| 20260507004340 | 48 | 211 | 1.0 | 3.0 | 0.00 | 0.24 | 0.00 | 69 | 1008.2 |
| 20260507003853 | 48 | 206 | 1.0 | 3.0 | 0.00 | 0.24 | 0.00 | 69 | 1008.2 |
| 20260507003340 | 48 | 205 | 2.0 | 4.0 | 0.00 | 0.24 | 0.00 | 69 | 1008.3 |
| 20260507002839 | 48 | 205 | 2.0 | 4.0 | 0.00 | 0.24 | 0.00 | 69 | 1008.3 |
| 20260507002335 | 48 | 267 | 1.0 | 3.0 | 0.00 | 0.24 | 0.00 | 69 | 1008.3 |
| 20260507002102 | 48 | 213 | 0.0 | 0.0 | 0.00 | 0.24 | 0.00 | 69 | 1008.3 |
| 20260507001335 | 48 | 213 | 0.0 | 0.0 | 0.00 | 0.24 | 0.00 | 69 | 1008.4 |
| 20260507000835 | 48 | 213 | 0.0 | 0.0 | 0.00 | 0.24 | 0.00 | 69 | 1008.3 |
| 20260507000558 | 48 | 213 | 0.0 | 0.0 | 0.00 | 0.24 | 0.00 | 69 | 1008.5 |
| 20260507000056 | 49 | 213 | 0.0 | 0.0 | 0.00 | 0.24 | 0.00 | 69 | 1008.5 |
| 20260506235335 | 49 | 214 | 0.0 | 0.0 | 0.00 | 0.24 | 0.00 | 69 | 1008.5 |
| 20260506234843 | 49 | 214 | 0.0 | 2.0 | 0.00 | 0.24 | 0.00 | 69 | 1008.5 |
| 20260506234327 | 49 | 214 | 1.0 | 2.0 | 0.00 | 0.24 | 0.00 | 69 | 1008.5 |
| 20260506233827 | 49 | 212 | 1.0 | 3.0 | 0.00 | 0.24 | 0.00 | 69 | 1008.5 |
| 20260506233320 | 49 | 211 | 1.0 | 3.0 | 0.00 | 0.24 | 0.00 | 69 | 1008.7 |
| 20260506232822 | 49 | 211 | 0.0 | 1.0 | 0.00 | 0.24 | 0.00 | 69 | 1008.8 |
| 20260506232319 | 49 | 211 | 0.0 | 1.0 | 0.00 | 0.24 | 0.00 | 69 | 1008.7 |
| 20260506231823 | 49 | 211 | 1.0 | 2.0 | 0.00 | 0.24 | 0.00 | 69 | 1008.7 |
| 20260506231331 | 49 | 211 | 1.0 | 2.0 | 0.00 | 0.24 | 0.00 | 69 | 1008.8 |
| 20260506230823 | 49 | 211 | 1.0 | 2.0 | 0.00 | 0.24 | 0.00 | 69 | 1008.7 |
| 20260506230540 | 49 | 210 | 1.0 | 3.0 | 0.00 | 0.24 | 0.00 | 69 | 1008.7 |
| 20260506225822 | 49 | 210 | 1.0 | 3.0 | 0.00 | 0.24 | 0.00 | 69 | 1008.7 |
| 20260506225312 | 49 | 210 | 0.0 | 2.0 | 0.00 | 0.24 | 0.00 | 69 | 1008.7 |
| 20260506224816 | 50 | 210 | 1.0 | 2.0 | 0.00 | 0.24 | 0.00 | 69 | 1008.7 |
| 20260506224303 | 50 | 210 | 1.0 | 2.0 | 0.00 | 0.24 | 0.00 | 69 | 1008.8 |
| 20260506223806 | 50 | 210 | 1.0 | 2.0 | 0.00 | 0.24 | 0.00 | 69 | 1008.8 |
| 20260506223304 | 49 | 210 | 1.0 | 3.0 | 0.00 | 0.24 | 0.00 | 69 | 1008.8 |
| 20260506222806 | 49 | 209 | 1.0 | 3.0 | 0.00 | 0.24 | 0.00 | 69 | 1008.9 |
| 20260506222306 | 49 | 208 | 1.0 | 3.0 | 0.00 | 0.24 | 0.00 | 70 | 1008.9 |
| 20260506221806 | 49 | 207 | 1.0 | 3.0 | 0.00 | 0.24 | 0.00 | 70 | 1008.9 |
| 20260506221304 | 50 | 208 | 1.0 | 2.0 | 0.00 | 0.24 | 0.00 | 70 | 1008.8 |
| 20260506220806 | 50 | 208 | 1.0 | 2.0 | 0.00 | 0.24 | 0.00 | 70 | 1008.7 |
| 20260506220303 | 50 | 208 | 1.0 | 2.0 | 0.00 | 0.24 | 0.00 | 70 | 1008.8 |
| 20260506215806 | 50 | 208 | 0.0 | 2.0 | 0.00 | 0.24 | 0.24 | 70 | 1008.8 |
| 20260506215306 | 50 | 207 | 0.0 | 0.0 | 0.00 | 0.24 | 0.24 | 70 | 1008.8 |
| 20260506214807 | 50 | 207 | 0.0 | 2.0 | 0.00 | 0.24 | 0.24 | 70 | 1008.8 |
| 20260506214524 | 50 | 207 | 1.0 | 2.0 | 0.00 | 0.24 | 0.24 | 71 | 1008.9 |
| 20260506213808 | 50 | 207 | 1.0 | 2.0 | 0.00 | 0.24 | 0.24 | 71 | 1009.0 |
| 20260506213305 | 51 | 207 | 1.0 | 2.0 | 0.00 | 0.24 | 0.24 | 71 | 1009.0 |
| 20260506212806 | 51 | 207 | 1.0 | 2.0 | 0.00 | 0.24 | 0.24 | 71 | 1008.9 |
| 20260506212306 | 51 | 207 | 1.0 | 2.0 | 0.00 | 0.24 | 0.24 | 71 | 1008.9 |
| 20260506211807 | 51 | 207 | 1.0 | 3.0 | 0.00 | 0.24 | 0.24 | 71 | 1008.9 |
| 20260506211304 | 51 | 207 | 2.0 | 3.0 | 0.00 | 0.24 | 0.24 | 71 | 1009.0 |
| 20260506211030 | 51 | 207 | 2.0 | 4.0 | 0.00 | 0.24 | 0.24 | 71 | 1008.9 |
| 20260506210528 | 51 | 207 | 1.0 | 4.0 | 0.00 | 0.24 | 0.24 | 71 | 1009.0 |
| 20260506210031 | 52 | 242 | 1.0 | 3.0 | 0.00 | 0.24 | 0.24 | 71 | 1008.9 |
| 20260506205305 | 52 | 244 | 1.0 | 3.0 | 0.00 | 0.24 | 0.24 | 71 | 1008.8 |
| 20260506204806 | 52 | 244 | 2.0 | 3.0 | 0.00 | 0.24 | 0.24 | 71 | 1008.8 |
| 20260506204303 | 52 | 301 | 2.0 | 3.0 | 0.00 | 0.24 | 0.24 | 71 | 1008.9 |
| 20260506203806 | 52 | 308 | 1.0 | 3.0 | 0.00 | 0.24 | 0.24 | 71 | 1008.9 |
| 20260506203523 | 53 | 309 | 1.0 | 2.0 | 0.00 | 0.24 | 0.24 | 71 | 1008.9 |